Weather History for Hattiesburg, MS

Change the Weather History Date:

Thursday, January 18, 2007

  Actual Average Record
Temperature  
Mean Temperature 44 °F 48 °F  
Max Temperature 48 °F 60 °F 82 °F (1950)
Min Temperature 39 °F 37 °F 15 °F (1977)
Degree Days  
Heating Degree Days 22 17  
Month to date heating degree days 299  
Since 1 July heating degree days 1084  
Cooling Degree Days 0 0  
Month to date cooling degree days 0  
Year to date cooling degree days 0  
Moisture  
Dew Point 44 °F    
Average Humidity 93    
Maximum Humidity 100    
Minimum Humidity 82    
Precipitation  
Precipitation 0.15 in 0.18 in 3.13 in (1987)
Month to date precipitation 3.19  
Year to date precipitation 3.19  
Sea Level Pressure  
Sea Level Pressure 30.36 in    
Wind  
Wind Speed 1 mph (NNW)    
Max Wind Speed 7 mph    
Max Gust Speed -    
Visibility 3 miles    
Events Rain    
T = Trace of Precipitation, MM = Missing Value Source: NWS Daily Summary

Daily Weather History Graph

Daily Weather History Graph

Search for Another Location

Airport:

Trip Planner

Search our weather history database for the weather conditions in past years. The results will help you decide how hot, cold, wet, or windy it might be!

Date:

Astronomy

Jan. 18, 2007 Rise Set
Actual Time 6:55 AM CST 5:19 PM CST
Civil Twilight 6:29 AM CST 5:45 PM CST
Nautical Twilight 6:00 AM CST 6:15 PM CST
Astronomical Twilight 5:30 AM CST 6:44 PM CST
Moon 6:46 AM CST 4:52 PM CST
Length of Visible Light 11h 15m
Length of Day
10h 23m
Waning Crescent, 0% of the Moon is Illuminated
Jan 18
Waning Crescent
Jan 18
New
Jan 25
First Quarter
Feb 1
Full
Feb 10
Last Quarter

Hourly Weather History & Observations

Time (CST) Temp. Windchill Dew Point Humidity Pressure Visibility Wind Dir Wind Speed Gust Speed Precip Events Conditions
12:53 AM 39.0 °F - 34.0 °F 82% 30.40 in 10.0 mi Calm Calm - N/A   Overcast
1:53 AM 39.0 °F - 35.1 °F 86% 30.38 in 10.0 mi Calm Calm - N/A   Overcast
2:53 AM 39.9 °F - 35.1 °F 83% 30.38 in 9.0 mi Calm Calm - N/A   Overcast
3:53 AM 39.9 °F - 37.0 °F 89% 30.38 in 7.0 mi Calm Calm - 0.00 in   Overcast
4:53 AM 39.9 °F - 37.9 °F 93% 30.38 in 3.0 mi Calm Calm - 0.02 in Rain Light Rain
5:53 AM 39.9 °F - 39.0 °F 97% 30.38 in 4.0 mi Calm Calm - 0.01 in   Overcast
6:19 AM 41.0 °F - 39.2 °F 93% 30.38 in 2.5 mi Calm Calm - 0.00 in Rain Light Rain
6:33 AM 41.0 °F - 39.2 °F 93% 30.38 in 3.0 mi Calm Calm - 0.01 in Rain Light Rain
6:53 AM 41.0 °F - 39.0 °F 93% 30.39 in 3.0 mi Calm Calm - 0.01 in Rain Light Rain
7:17 AM 41.0 °F - 39.2 °F 93% 30.40 in 1.8 mi Calm Calm - 0.00 in Rain Light Rain
7:26 AM 41.0 °F - 39.2 °F 93% 30.40 in 1.5 mi Calm Calm - 0.00 in Rain Light Rain
7:42 AM 41.0 °F - 39.2 °F 93% 30.40 in 1.8 mi Calm Calm - 0.00 in   Overcast
7:49 AM 41.0 °F - 39.2 °F 93% 30.39 in 2.0 mi Calm Calm - 0.00 in   Overcast
7:53 AM 41.0 °F 39.0 °F 39.9 °F 96% 30.40 in 2.0 mi NNE 3.5 mph - 0.00 in   Overcast
8:42 AM 42.8 °F 41.1 °F 41.0 °F 93% 30.41 in 3.0 mi North 3.5 mph - N/A   Overcast
8:53 AM 43.0 °F 40.3 °F 41.0 °F 93% 30.43 in 2.5 mi NNW 4.6 mph - 0.00 in Rain Light Rain
9:04 AM 42.8 °F - 41.0 °F 93% 30.42 in 1.8 mi Calm Calm - 0.01 in Rain Light Rain
9:23 AM 42.8 °F - 41.0 °F 93% 30.42 in 1.5 mi Calm Calm - 0.01 in Rain Light Rain
9:34 AM 42.8 °F - 42.8 °F 100% 30.42 in 2.0 mi Calm Calm - 0.01 in Rain Light Rain
9:53 AM 44.1 °F - 42.1 °F 93% 30.42 in 3.0 mi Calm Calm - 0.01 in   Overcast
10:17 AM 44.6 °F - 42.8 °F 93% 30.41 in 4.0 mi Calm Calm - N/A   Overcast
10:53 AM 45.0 °F - 43.0 °F 93% 30.40 in 4.0 mi Calm Calm - N/A   Overcast
11:53 AM 46.9 °F - 44.1 °F 90% 30.38 in 4.0 mi Calm Calm - N/A   Overcast
12:40 PM 46.4 °F 45.2 °F 44.6 °F 93% 30.35 in 2.0 mi North 3.5 mph - N/A   Overcast
12:53 PM 46.9 °F - 44.1 °F 90% 30.35 in 2.5 mi North 3.5 mph - N/A   Overcast
1:02 PM 46.4 °F 44.3 °F 44.6 °F 93% 30.35 in 3.0 mi NNW 4.6 mph - N/A   Overcast
1:29 PM 46.4 °F - 44.6 °F 93% 30.34 in 1.8 mi Calm Calm - 0.00 in Rain Light Rain
1:53 PM 46.9 °F - 45.0 °F 93% 30.33 in 2.5 mi Calm Calm - 0.00 in   Overcast
2:22 PM 48.2 °F - 44.6 °F 87% 30.32 in 3.0 mi Calm Calm - 0.01 in   Overcast
2:53 PM 48.0 °F - 45.0 °F 89% 30.31 in 3.0 mi Calm Calm - 0.01 in   Overcast
3:53 PM 48.0 °F - 46.0 °F 93% 30.30 in 4.0 mi Calm Calm - 0.00 in   Overcast
4:03 PM 48.2 °F - 46.4 °F 93% 30.30 in 4.0 mi Calm Calm - N/A   Overcast
4:19 PM 48.2 °F - 46.4 °F 93% 30.29 in 3.0 mi Calm Calm - 0.00 in Rain Light Rain
4:53 PM 48.9 °F - 46.9 °F 93% 30.30 in 3.0 mi Calm Calm - 0.00 in   Overcast
5:01 PM 48.2 °F - 46.4 °F 93% 30.30 in 2.5 mi Calm Calm - N/A   Overcast
5:17 PM 48.2 °F - 46.4 °F 93% 30.29 in 3.0 mi Calm Calm - N/A   Overcast
5:53 PM 48.0 °F - 46.9 °F 96% 30.32 in 3.0 mi NNW 4.6 mph - 0.01 in Rain Light Rain
6:11 PM 48.2 °F - 46.4 °F 93% 30.32 in 2.5 mi North 4.6 mph - 0.00 in Rain Light Rain
6:19 PM 48.2 °F - 46.4 °F 93% 30.32 in 2.0 mi North 3.5 mph - 0.00 in Rain Light Rain
6:30 PM 48.2 °F - 46.4 °F 93% 30.32 in 1.8 mi North 3.5 mph - 0.01 in Rain Light Rain
6:35 PM 48.2 °F - 46.4 °F 93% 30.33 in 2.0 mi NNW 3.5 mph - 0.01 in Rain Light Rain
6:42 PM 48.2 °F - 46.4 °F 93% 30.33 in 2.0 mi North 3.5 mph - 0.01 in Rain Light Rain
6:53 PM 48.0 °F - 46.9 °F 96% 30.34 in 2.5 mi NNW 4.6 mph - 0.01 in   Overcast
7:08 PM 48.2 °F - 46.4 °F 93% 30.34 in 1.8 mi North 3.5 mph - 0.01 in Rain Light Rain
7:24 PM 48.2 °F - 46.4 °F 93% 30.34 in 2.0 mi North 3.5 mph - 0.02 in Rain Light Rain
7:53 PM 48.0 °F - 46.9 °F 96% 30.35 in 2.0 mi Calm Calm - 0.03 in Rain Light Rain
8:10 PM 48.2 °F - 46.4 °F 93% 30.35 in 2.5 mi Calm Calm - 0.01 in Rain Light Rain
8:19 PM 48.2 °F - 46.4 °F 93% 30.35 in 3.0 mi NNW 4.6 mph - 0.01 in   Overcast
8:28 PM 48.2 °F - 46.4 °F 93% 30.35 in 2.5 mi NNW 4.6 mph - 0.01 in   Overcast
8:36 PM 48.2 °F - 46.4 °F 93% 30.35 in 2.5 mi NNW 4.6 mph - 0.01 in Rain Light Rain
8:53 PM 46.9 °F - 46.0 °F 97% 30.35 in 2.5 mi NNW 4.6 mph - 0.02 in Rain Light Rain
8:58 PM 46.4 °F 45.2 °F 46.4 °F 100% 30.35 in 3.0 mi North 3.5 mph - 0.00 in Rain Light Rain
9:18 PM 48.2 °F - 46.4 °F 93% 30.34 in 4.0 mi Calm Calm - 0.00 in   Overcast
9:53 PM 48.0 °F - 46.0 °F 93% 30.34 in 5.0 mi Calm Calm - 0.00 in   Overcast
10:14 PM 48.2 °F - 46.4 °F 93% 30.36 in 4.0 mi North 3.5 mph - N/A   Overcast
10:24 PM 48.2 °F - 46.4 °F 93% 30.36 in 2.5 mi NNW 4.6 mph - 0.00 in Rain Light Rain
10:31 PM 48.2 °F - 46.4 °F 93% 30.36 in 2.5 mi North 6.9 mph - 0.01 in Rain Light Rain
10:39 PM 46.4 °F 43.5 °F 46.4 °F 100% 30.36 in 2.5 mi NNW 5.8 mph - 0.02 in Rain Rain
10:46 PM 46.4 °F 43.5 °F 46.4 °F 100% 30.36 in 3.0 mi North 5.8 mph - 0.02 in Rain Light Rain
10:53 PM 46.9 °F - 46.0 °F 97% 30.37 in 3.0 mi North 4.6 mph - 0.02 in Rain Light Rain
11:11 PM 48.2 °F - 46.4 °F 93% 30.36 in 6.0 mi North 4.6 mph - 0.00 in Rain Light Rain
11:53 PM 46.9 °F - 45.0 °F 93% 30.35 in 9.0 mi Calm Calm - 0.00 in   Overcast